| time (UTC) | temp C | wind direction | speed KPH | gust KPH | rain 1hr cm | rain 24hr cm | rain mn cm | humidity % | barometer mb |
| 20260504221031 | 19 | 281 | 8.0 | 20.9 | 0.00 | 0.00 | 0.00 | 68 | 1015.3 |
| 20260504220535 | 19 | 281 | 11.3 | 20.9 | 0.00 | 0.00 | 0.00 | 69 | 1015.5 |
| 20260504220107 | 19 | 292 | 11.3 | 20.9 | 0.00 | 0.00 | 0.00 | 68 | 1015.6 |
| 20260504215533 | 19 | 246 | 9.7 | 19.3 | 0.00 | 0.00 | 0.00 | 68 | 1015.6 |
| 20260504215125 | 19 | 306 | 9.7 | 19.3 | 0.00 | 0.00 | 0.00 | 68 | 1015.6 |
| 20260504214555 | 19 | 247 | 9.7 | 20.9 | 0.00 | 0.00 | 0.00 | 68 | 1015.5 |
| 20260504214034 | 19 | 308 | 9.7 | 24.1 | 0.00 | 0.00 | 0.00 | 69 | 1015.7 |
| 20260504213534 | 19 | 307 | 9.7 | 24.1 | 0.00 | 0.00 | 0.00 | 68 | 1015.8 |
| 20260504213053 | 19 | 294 | 9.7 | 19.3 | 0.00 | 0.00 | 0.00 | 68 | 1015.8 |
| 20260504212532 | 19 | 290 | 8.0 | 17.7 | 0.00 | 0.00 | 0.00 | 70 | 1015.7 |
| 20260504212032 | 18 | 324 | 9.7 | 17.7 | 0.00 | 0.00 | 0.00 | 69 | 1015.8 |
| 20260504211555 | 19 | 311 | 11.3 | 22.5 | 0.00 | 0.00 | 0.00 | 68 | 1015.9 |
| 20260504211034 | 19 | 298 | 9.7 | 22.5 | 0.00 | 0.00 | 0.00 | 67 | 1015.9 |
| 20260504210531 | 19 | 282 | 9.7 | 19.3 | 0.00 | 0.00 | 0.00 | 67 | 1015.9 |
| 20260504210048 | 19 | 242 | 9.7 | 19.3 | 0.00 | 0.00 | 0.00 | 66 | 1015.9 |
| 20260504205530 | 19 | 277 | 8.0 | 20.9 | 0.00 | 0.00 | 0.00 | 67 | 1016.0 |
| 20260504205031 | 19 | 258 | 9.7 | 22.5 | 0.00 | 0.00 | 0.00 | 67 | 1016.0 |
| 20260504204546 | 19 | 238 | 6.4 | 22.5 | 0.00 | 0.00 | 0.00 | 67 | 1015.9 |
| 20260504204032 | 18 | 224 | 9.7 | 19.3 | 0.00 | 0.00 | 0.00 | 68 | 1015.9 |
| 20260504203532 | 19 | 300 | 9.7 | 19.3 | 0.00 | 0.00 | 0.00 | 66 | 1015.9 |
| 20260504203054 | 19 | 292 | 8.0 | 17.7 | 0.00 | 0.00 | 0.00 | 68 | 1015.9 |
| 20260504202532 | 19 | 306 | 6.4 | 17.7 | 0.00 | 0.00 | 0.00 | 68 | 1015.9 |
| 20260504202032 | 18 | 280 | 6.4 | 17.7 | 0.00 | 0.00 | 0.00 | 69 | 1015.8 |
| 20260504201553 | 18 | 311 | 9.7 | 17.7 | 0.00 | 0.00 | 0.00 | 69 | 1015.9 |
| 20260504201031 | 18 | 298 | 9.7 | 16.1 | 0.00 | 0.00 | 0.00 | 69 | 1016.0 |
| 20260504200531 | 18 | 301 | 6.4 | 16.1 | 0.00 | 0.00 | 0.00 | 69 | 1016.0 |
| 20260504200055 | 18 | 244 | 6.4 | 14.5 | 0.00 | 0.00 | 0.00 | 69 | 1016.0 |
| 20260504195531 | 18 | 289 | 6.4 | 14.5 | 0.00 | 0.00 | 0.00 | 70 | 1015.9 |
| 20260504195031 | 18 | 299 | 4.8 | 12.9 | 0.00 | 0.00 | 0.00 | 68 | 1015.9 |
| 20260504194548 | 18 | 241 | 6.4 | 22.5 | 0.00 | 0.00 | 0.00 | 69 | 1015.9 |
| 20260504194034 | 18 | 288 | 8.0 | 22.5 | 0.00 | 0.00 | 0.00 | 70 | 1016.0 |
| 20260504193531 | 18 | 294 | 6.4 | 16.1 | 0.00 | 0.00 | 0.00 | 70 | 1016.1 |
| 20260504193044 | 18 | 265 | 8.0 | 19.3 | 0.00 | 0.00 | 0.00 | 69 | 1016.0 |
| 20260504192530 | 18 | 249 | 8.0 | 19.3 | 0.00 | 0.00 | 0.00 | 69 | 1016.2 |
| 20260504192031 | 18 | 311 | 8.0 | 17.7 | 0.00 | 0.00 | 0.00 | 69 | 1016.1 |
| 20260504191555 | 18 | 269 | 8.0 | 16.1 | 0.00 | 0.00 | 0.00 | 71 | 1016.2 |
| 20260504191035 | 18 | 229 | 6.4 | 17.7 | 0.00 | 0.00 | 0.00 | 70 | 1016.2 |
| 20260504190532 | 18 | 290 | 8.0 | 17.7 | 0.00 | 0.00 | 0.00 | 70 | 1016.3 |
| 20260504185532 | 18 | 276 | 8.0 | 17.7 | 0.00 | 0.00 | 0.00 | 70 | 1016.2 |
| 20260504185034 | 17 | 263 | 6.4 | 17.7 | 0.00 | 0.00 | 0.00 | 71 | 1016.3 |
| 20260504184557 | 17 | 323 | 6.4 | 17.7 | 0.00 | 0.00 | 0.00 | 71 | 1016.4 |
| 20260504184034 | 17 | 243 | 8.0 | 17.7 | 0.00 | 0.00 | 0.00 | 71 | 1016.3 |
| 20260504183532 | 17 | 315 | 6.4 | 19.3 | 0.00 | 0.00 | 0.00 | 70 | 1016.3 |
| 20260504183051 | 17 | 278 | 8.0 | 19.3 | 0.00 | 0.00 | 0.00 | 71 | 1016.3 |
| 20260504182531 | 17 | 344 | 8.0 | 19.3 | 0.00 | 0.00 | 0.00 | 70 | 1016.3 |
| 20260504182033 | 17 | 284 | 8.0 | 19.3 | 0.00 | 0.00 | 0.00 | 70 | 1016.3 |
| 20260504181548 | 17 | 306 | 6.4 | 19.3 | 0.00 | 0.00 | 0.00 | 72 | 1016.2 |
| 20260504181031 | 17 | 264 | 8.0 | 19.3 | 0.00 | 0.00 | 0.00 | 72 | 1016.2 |
| 20260504180534 | 17 | 286 | 8.0 | 19.3 | 0.00 | 0.00 | 0.00 | 72 | 1016.2 |
| 20260504180045 | 17 | 296 | 9.7 | 19.3 | 0.00 | 0.00 | 0.00 | 72 | 1016.2 |
| 20260504175531 | 17 | 300 | 6.4 | 16.1 | 0.00 | 0.00 | 0.00 | 74 | 1016.3 |
| 20260504175035 | 17 | 254 | 4.8 | 16.1 | 0.00 | 0.00 | 0.00 | 74 | 1016.2 |
| 20260504174545 | 17 | 283 | 6.4 | 19.3 | 0.00 | 0.00 | 0.00 | 74 | 1016.0 |
| 20260504174034 | 16 | 290 | 6.4 | 19.3 | 0.00 | 0.00 | 0.00 | 73 | 1016.1 |
| 20260504173531 | 17 | 221 | 8.0 | 19.3 | 0.00 | 0.00 | 0.00 | 74 | 1016.1 |
| 20260504173057 | 16 | 273 | 8.0 | 17.7 | 0.00 | 0.00 | 0.00 | 75 | 1016.0 |
| 20260504172530 | 16 | 309 | 8.0 | 17.7 | 0.00 | 0.00 | 0.00 | 75 | 1016.0 |
| 20260504172033 | 16 | 295 | 6.4 | 14.5 | 0.00 | 0.00 | 0.00 | 74 | 1015.9 |
| 20260504171544 | 16 | 284 | 6.4 | 14.5 | 0.00 | 0.00 | 0.00 | 75 | 1015.9 |
| 20260504171032 | 16 | 297 | 8.0 | 16.1 | 0.00 | 0.00 | 0.00 | 74 | 1015.9 |
| 20260504170531 | 16 | 264 | 6.4 | 16.1 | 0.00 | 0.00 | 0.00 | 74 | 1015.8 |
| 20260504151037 | 15 | 0 | 0.0 | 1.6 | 0.00 | 0.00 | 0.00 | 80 | 1015.3 |
| 20260504150537 | 15 | 0 | 0.0 | 1.6 | 0.00 | 0.00 | 0.00 | 80 | 1015.3 |
| 20260504141035 | 14 | 0 | 0.0 | 1.6 | 0.00 | 0.00 | 0.00 | 81 | 1015.1 |
| 20260504140536 | 14 | 0 | 0.0 | 3.2 | 0.00 | 0.00 | 0.00 | 81 | 1015.0 |
| 20260504130537 | 14 | 0 | 0.0 | 4.8 | 0.00 | 0.00 | 0.00 | 80 | 1014.7 |
| 20260504110531 | 14 | 309 | 1.6 | 9.7 | 0.00 | 0.00 | 0.00 | 79 | 1014.7 |
| 20260504100531 | 14 | 284 | 3.2 | 9.7 | 0.00 | 0.00 | 0.00 | 80 | 1014.2 |
| 20260504081549 | 15 | 250 | 4.8 | 17.7 | 0.00 | 0.00 | 0.00 | 81 | 1014.9 |
| 20260504081031 | 15 | 250 | 8.0 | 17.7 | 0.00 | 0.00 | 0.00 | 81 | 1015.4 |
| 20260504080531 | 15 | 311 | 6.4 | 16.1 | 0.00 | 0.00 | 0.00 | 81 | 1015.5 |
| 20260504050534 | 16 | 262 | 1.6 | 6.4 | 0.00 | 0.00 | 0.00 | 76 | 1015.0 |
| 20260504045534 | 16 | 240 | 1.6 | 4.8 | 0.00 | 0.00 | 0.00 | 76 | 1015.1 |
| 20260504045034 | 16 | 244 | 1.6 | 4.8 | 0.00 | 0.00 | 0.00 | 76 | 1015.1 |
| 20260504044558 | 16 | 261 | 1.6 | 4.8 | 0.00 | 0.00 | 0.00 | 75 | 1014.9 |
| 20260504044034 | 16 | 244 | 1.6 | 3.2 | 0.00 | 0.00 | 0.00 | 75 | 1014.8 |
| 20260504043535 | 16 | 0 | 0.0 | 4.8 | 0.00 | 0.00 | 0.00 | 75 | 1014.7 |
| 20260504043045 | 16 | 0 | 1.6 | 4.8 | 0.00 | 0.00 | 0.00 | 75 | 1014.5 |
| 20260504042534 | 16 | 242 | 0.0 | 4.8 | 0.00 | 0.00 | 0.00 | 75 | 1014.6 |
| 20260504042033 | 16 | 255 | 1.6 | 4.8 | 0.00 | 0.00 | 0.00 | 75 | 1014.6 |
| 20260504041549 | 16 | 309 | 1.6 | 3.2 | 0.00 | 0.00 | 0.00 | 75 | 1014.6 |
| 20260504041035 | 16 | 331 | 1.6 | 6.4 | 0.00 | 0.00 | 0.00 | 75 | 1014.4 |
| 20260504040535 | 16 | 284 | 1.6 | 6.4 | 0.00 | 0.00 | 0.00 | 75 | 1014.6 |
| 20260504035534 | 16 | 274 | 1.6 | 4.8 | 0.00 | 0.00 | 0.00 | 74 | 1014.2 |
| 20260504035036 | 16 | 315 | 1.6 | 4.8 | 0.00 | 0.00 | 0.00 | 74 | 1014.4 |
| 20260504034557 | 16 | 277 | 1.6 | 6.4 | 0.00 | 0.00 | 0.00 | 74 | 1014.6 |
| 20260504034034 | 16 | 246 | 1.6 | 6.4 | 0.00 | 0.00 | 0.00 | 74 | 1014.6 |
| 20260504033535 | 16 | 267 | 1.6 | 6.4 | 0.00 | 0.00 | 0.00 | 73 | 1014.5 |
| 20260504033124 | 16 | 296 | 3.2 | 6.4 | 0.00 | 0.00 | 0.00 | 73 | 1014.5 |
| 20260504032535 | 16 | 252 | 3.2 | 6.4 | 0.00 | 0.00 | 0.00 | 73 | 1014.5 |
| 20260504032035 | 16 | 256 | 1.6 | 6.4 | 0.00 | 0.00 | 0.00 | 73 | 1014.4 |
| 20260504031548 | 16 | 292 | 3.2 | 8.0 | 0.00 | 0.00 | 0.00 | 73 | 1014.4 |
| 20260504031035 | 16 | 278 | 3.2 | 8.0 | 0.00 | 0.00 | 0.00 | 73 | 1014.3 |
| 20260504030533 | 16 | 227 | 3.2 | 8.0 | 0.00 | 0.00 | 0.00 | 73 | 1014.2 |
| 20260504030051 | 16 | 269 | 1.6 | 6.4 | 0.00 | 0.00 | 0.00 | 73 | 1014.2 |
| 20260504025535 | 16 | 252 | 1.6 | 8.0 | 0.00 | 0.00 | 0.00 | 72 | 1014.2 |
| 20260504025035 | 16 | 232 | 1.6 | 8.0 | 0.00 | 0.00 | 0.00 | 72 | 1014.0 |
| 20260504024545 | 16 | 288 | 3.2 | 8.0 | 0.00 | 0.00 | 0.00 | 72 | 1014.0 |
| 20260504024034 | 16 | 273 | 3.2 | 6.4 | 0.00 | 0.00 | 0.00 | 72 | 1014.0 |
| 20260504023535 | 16 | 270 | 1.6 | 8.0 | 0.00 | 0.00 | 0.00 | 72 | 1014.0 |
| 20260504023059 | 16 | 235 | 1.6 | 8.0 | 0.00 | 0.00 | 0.00 | 72 | 1014.0 |
| 20260504022534 | 16 | 270 | 1.6 | 9.7 | 0.00 | 0.00 | 0.00 | 72 | 1014.1 |
| 20260504022034 | 16 | 262 | 3.2 | 9.7 | 0.00 | 0.00 | 0.00 | 71 | 1014.1 |
| 20260504021546 | 16 | 329 | 3.2 | 11.3 | 0.00 | 0.00 | 0.00 | 71 | 1014.1 |
| 20260504021034 | 16 | 276 | 4.8 | 11.3 | 0.00 | 0.00 | 0.00 | 71 | 1014.3 |
| 20260504020534 | 16 | 252 | 3.2 | 11.3 | 0.00 | 0.00 | 0.00 | 71 | 1014.0 |
| 20260504020057 | 16 | 246 | 4.8 | 12.9 | 0.00 | 0.00 | 0.00 | 71 | 1014.0 |
| 20260504015534 | 16 | 226 | 6.4 | 12.9 | 0.00 | 0.00 | 0.00 | 71 | 1014.0 |
| 20260504015035 | 16 | 257 | 4.8 | 11.3 | 0.00 | 0.00 | 0.00 | 71 | 1014.0 |
| 20260504014549 | 16 | 229 | 4.8 | 11.3 | 0.00 | 0.00 | 0.00 | 71 | 1013.9 |
| 20260504014035 | 16 | 269 | 4.8 | 11.3 | 0.00 | 0.00 | 0.00 | 71 | 1013.8 |
| 20260504013535 | 16 | 270 | 4.8 | 12.9 | 0.00 | 0.00 | 0.00 | 70 | 1013.9 |
| 20260504013100 | 16 | 233 | 6.4 | 14.5 | 0.00 | 0.00 | 0.00 | 70 | 1013.9 |
| 20260504012537 | 16 | 267 | 6.4 | 16.1 | 0.00 | 0.00 | 0.00 | 70 | 1013.8 |
| 20260504012033 | 16 | 284 | 8.0 | 16.1 | 0.00 | 0.00 | 0.00 | 70 | 1013.7 |
| 20260504011546 | 16 | 271 | 6.4 | 14.5 | 0.00 | 0.00 | 0.00 | 70 | 1013.6 |
| 20260504011032 | 16 | 288 | 4.8 | 14.5 | 0.00 | 0.00 | 0.00 | 70 | 1013.6 |
| 20260504010532 | 16 | 279 | 8.0 | 14.5 | 0.00 | 0.00 | 0.00 | 69 | 1013.6 |
| 20260504010053 | 16 | 299 | 6.4 | 14.5 | 0.00 | 0.00 | 0.00 | 69 | 1013.5 |
| 20260504005535 | 16 | 256 | 4.8 | 16.1 | 0.00 | 0.00 | 0.00 | 70 | 1013.5 |
| 20260504005032 | 16 | 317 | 8.0 | 16.1 | 0.00 | 0.00 | 0.00 | 70 | 1013.4 |
| 20260504004603 | 17 | 277 | 8.0 | 14.5 | 0.00 | 0.00 | 0.00 | 70 | 1013.4 |
| 20260504004033 | 17 | 257 | 6.4 | 17.7 | 0.00 | 0.00 | 0.00 | 69 | 1013.2 |
| 20260504003532 | 17 | 290 | 8.0 | 17.7 | 0.00 | 0.00 | 0.00 | 68 | 1013.5 |
| 20260504003045 | 17 | 239 | 8.0 | 17.7 | 0.00 | 0.00 | 0.00 | 68 | 1013.2 |
| 20260504002532 | 17 | 272 | 8.0 | 16.1 | 0.00 | 0.00 | 0.00 | 68 | 1013.3 |
| 20260504002032 | 17 | 276 | 6.4 | 17.7 | 0.00 | 0.00 | 0.00 | 68 | 1013.3 |
| 20260504001546 | 17 | 267 | 6.4 | 17.7 | 0.00 | 0.00 | 0.00 | 68 | 1013.1 |
| 20260504001035 | 17 | 258 | 6.4 | 16.1 | 0.00 | 0.00 | 0.00 | 67 | 1013.1 |
| 20260504000533 | 17 | 293 | 8.0 | 14.5 | 0.00 | 0.00 | 0.00 | 67 | 1013.2 |
| 20260504000049 | 17 | 291 | 8.0 | 16.1 | 0.00 | 0.00 | 0.00 | 66 | 1013.1 |
| 20260503235532 | 17 | 273 | 6.4 | 16.1 | 0.00 | 0.00 | 0.00 | 65 | 1013.1 |
| 20260503235032 | 17 | 292 | 8.0 | 14.5 | 0.00 | 0.00 | 0.00 | 65 | 1013.1 |
| 20260503234547 | 18 | 326 | 4.8 | 12.9 | 0.00 | 0.00 | 0.00 | 65 | 1013.0 |
| 20260503234032 | 18 | 262 | 6.4 | 14.5 | 0.00 | 0.00 | 0.00 | 65 | 1012.8 |
| 20260503233536 | 18 | 298 | 4.8 | 14.5 | 0.00 | 0.00 | 0.00 | 66 | 1012.8 |
| 20260503233046 | 18 | 302 | 4.8 | 14.5 | 0.00 | 0.00 | 0.00 | 64 | 1012.8 |
| 20260503232533 | 18 | 295 | 4.8 | 14.5 | 0.00 | 0.00 | 0.00 | 64 | 1013.0 |
| 20260503232034 | 18 | 279 | 8.0 | 16.1 | 0.00 | 0.00 | 0.00 | 64 | 1012.9 |
| 20260503231550 | 19 | 244 | 8.0 | 16.1 | 0.00 | 0.00 | 0.00 | 62 | 1013.0 |
| 20260503231033 | 20 | 293 | 8.0 | 14.5 | 0.00 | 0.00 | 0.00 | 61 | 1013.0 |
| 20260503230536 | 20 | 13 | 6.4 | 14.5 | 0.00 | 0.00 | 0.00 | 60 | 1013.1 |
| 20260503230044 | 20 | 302 | 6.4 | 14.5 | 0.00 | 0.00 | 0.00 | 62 | 1013.3 |
| 20260503225535 | 20 | 279 | 6.4 | 17.7 | 0.00 | 0.00 | 0.00 | 61 | 1013.2 |
| 20260503225035 | 20 | 274 | 8.0 | 17.7 | 0.00 | 0.00 | 0.00 | 60 | 1013.3 |
| 20260503224547 | 20 | 252 | 6.4 | 17.7 | 0.00 | 0.00 | 0.00 | 60 | 1013.2 |
| 20260503224035 | 20 | 297 | 4.8 | 14.5 | 0.00 | 0.00 | 0.00 | 62 | 1013.3 |
| 20260503223531 | 20 | 254 | 8.0 | 16.1 | 0.00 | 0.00 | 0.00 | 60 | 1013.3 |
| 20260503223051 | 20 | 252 | 6.4 | 16.1 | 0.00 | 0.00 | 0.00 | 60 | 1013.3 |
| 20260503222533 | 20 | 294 | 6.4 | 16.1 | 0.00 | 0.00 | 0.00 | 61 | 1013.2 |
| 20260503222031 | 20 | 300 | 6.4 | 16.1 | 0.00 | 0.00 | 0.00 | 60 | 1013.4 |
| 20260503221545 | 20 | 232 | 6.4 | 14.5 | 0.00 | 0.00 | 0.00 | 62 | 1013.5 |